Location: Newark
(14.1000°N, 87.2167°W)
Time: 02:31:16
(UTC+00:00)

Hubble Space Telescope - Pass Details

Date: 29 July 2019
Orbit: 536 x 540 km, 28.5° (Epoch: 20 August)

Event Time Altitude Azimuth Distance (km) Brightness Sun altitude
Exits shadow 09:56:40 13° 328° (NNW) 1,590 3.1 -22.1°
Maximum altitude 09:57:55 15° 348° (NNW) 1,506 3.2 -21.8°
Drops below altitude 10° 10:00:16 10° 23° (NNE) 1,779 4.1 -21.3°
Sets 10:03:24 0° 48° (NE) 2,669 5.7 -20.7°
